{"data":{"norad_id":22490,"epoch":"2026-05-24T23:43:54.439392Z","epoch_age_seconds":73335,"freshness":"FRESH","line1":"1 22490U 93009B   26144.98882453  .00000371  00000+0  50475-4 0  9997","line2":"2 22490  24.9712 350.8103 0041737 252.4381 229.5931 14.46108768757758","mean_motion":14.46108768,"eccentricity":0.0041737,"inclination_deg":24.9712,"raan_deg":350.8103,"arg_perigee_deg":252.4381,"mean_anomaly_deg":229.5931,"bstar":5.0475e-5,"rev_number":75775,"period_min":99.57757202396,"perigee_km":708.68394978818,"apogee_km":768.08841540258,"semimajor_km":7116.5231825954,"source":"CELESTRAK","updated_at":"2026-05-25T13:38:12.738711Z"}}